Location: Wyoming Infrared Observatory
(41.0971°N, 105.9765°W)
Time: 17:57:27
(UTC-06:00)

Amateur Radio Satellites - All Passes

Search period start: 18 April 2014 17:27
Search period end: 19 April 2014 17:27
Location: Wyoming Infrared Observatory, 41.0971°N, 105.9765°W

Satellite Date Start Highest point End Downlink Frequencies (MHz)
Time Altitude Azimuth
JAS-2 18 Apr 17:41:17 17:43:08 12° 59° (ENE) 17:44:57 435.800 - 435.900 CW/SSB, 435.910 FM
SO-50 18 Apr 17:43:16 17:46:31 19° 318° (NW) 17:49:48 436.795 FM
AO-7 18 Apr 17:45:57 17:53:24 37° 262° (W) 18:00:55 29.400 - 29.500 MHz
ISS 18 Apr 17:46:15 17:48:57 22° 340° (NNW) 17:51:40 145.800 FM
RS-15 18 Apr 18:06:09 18:15:52 39° 252° (WSW) 18:25:52 29.354 - 29.394 USB, Beacon 29.352 USB
Hamsat 18 Apr 18:19:24 18:23:32 63° 75° (ENE) 18:27:44 145.90 MHz
UOSAT-12 18 Apr 18:29:27 18:34:00 84° 303° (WNW) 18:38:40 437.025 FM, 437.400 FM
Saudisat 1A 18 Apr 18:46:46 18:48:24 12° 36° (NE) 18:50:02 436.775 MHz
SO-67 18 Apr 18:47:45 18:50:22 20° 69° (ENE) 18:52:59 435.3500 MHz FM
JAS-2 18 Apr 19:21:37 19:27:35 86° 76° (ENE) 19:32:59 435.800 - 435.900 CW/SSB, 435.910 FM
ISS 18 Apr 19:24:51 19:26:39 14° 0° (N) 19:28:27 145.800 FM
HO-68 18 Apr 19:28:22 19:32:13 16° 52° (NE) 19:36:04 435.675 MHz FM
STRAND 1 18 Apr 19:55:54 20:01:02 89° 104° (ESE) 20:06:07 ?
Hamsat 18 Apr 19:59:06 19:59:57 11° 271° (W) 20:00:48 145.90 MHz
UOSAT-12 18 Apr 20:12:25 20:14:54 14° 323° (NW) 20:17:24 437.025 FM, 437.400 FM
SO-67 18 Apr 20:20:37 20:23:24 22° 265° (W) 20:26:13 435.3500 MHz FM
Saudisat 1A 18 Apr 20:24:23 20:28:49 72° 56° (NE) 20:33:10 436.775 MHz
ISS 18 Apr 21:01:35 21:04:19 22° 20° (NNE) 21:07:03 145.800 FM
JAS-2 18 Apr 21:11:30 21:13:12 11° 270° (W) 21:14:53 435.800 - 435.900 CW/SSB, 435.910 FM
HO-68 18 Apr 21:11:39 21:18:46 77° 71° (ENE) 21:25:55 435.675 MHz FM
Oscar 11 18 Apr 21:28:21 21:32:15 35° 70° (ENE) 21:36:10 145.825 FM, Beacon 2401.500 USB
STRAND 1 18 Apr 21:37:36 21:39:27 12° 301° (WNW) 21:41:19 ?
MaSat-1 18 Apr 21:45:58 21:48:46 35° 113° (ESE) 21:51:16 437.345 MHz
Saudisat 1A 18 Apr 22:06:21 22:07:47 11° 252° (WSW) 22:09:14 436.775 MHz
ISS 18 Apr 22:38:00 22:41:21 70° 219° (SW) 22:44:41 145.800 FM
FUNcube-1 18 Apr 22:52:01 22:56:14 88° 256° (WSW) 23:00:26 145.950 - 145.970 MHz USB
HO-68 18 Apr 23:02:19 23:07:08 19° 269° (W) 23:12:00 435.675 MHz FM
Oscar 11 18 Apr 23:05:21 23:08:32 20° 266° (W) 23:11:44 145.825 FM, Beacon 2401.500 USB
PCSat 18 Apr 23:38:58 23:40:52 12° 102° (ESE) 23:42:46 145.825 MHz
SO-50 19 Apr 00:32:51 00:37:24 52° 53° (NE) 00:41:59 436.795 FM
Sapphire 19 Apr 00:33:44 00:38:38 36° 111° (ESE) 00:43:34 437.095 MHz 1200 baud AX-25 AFSK
PCSat 19 Apr 01:18:03 01:23:28 88° 298° (WNW) 01:28:55 145.825 MHz
OPAL 19 Apr 01:20:08 01:22:26 13° 57° (ENE) 01:24:45 ?
UOSAT-12 19 Apr 01:20:31 01:23:00 14° 37° (NE) 01:25:28 437.025 FM, 437.400 FM
KITSAT 1 19 Apr 02:01:41 02:07:44 24° 104° (ESE) 02:13:48 435.175 FM
SO-50 19 Apr 02:14:22 02:17:36 19° 249° (WSW) 02:20:51 436.795 FM
Sapphire 19 Apr 02:17:12 02:22:04 33° 309° (NW) 02:26:58 437.095 MHz 1200 baud AX-25 AFSK
AO-27 19 Apr 02:20:03 02:24:08 23° 94° (E) 02:28:12 436.795 MHz FM
ITAMSAT 1 19 Apr 02:30:38 02:35:05 29° 96° (E) 02:39:31 435.822 SSB
Oscar 19 19 Apr 02:36:15 02:41:26 63° 101° (ESE) 02:46:34 437.125 CW, 437.150 USB
AO-Echo 19 Apr 02:43:20 02:47:28 29° 96° (E) 02:51:32 ?
Oscar 16 19 Apr 02:44:25 02:49:38 80° 103° (ESE) 02:54:50 437.025 USB, Beacon 2401.1428
OPAL 19 Apr 02:55:34 03:00:35 84° 254° (WSW) 03:05:43 ?
UOSAT-12 19 Apr 02:59:11 03:03:56 80° 57° (ENE) 03:08:37 437.025 FM, 437.400 FM
TMSAT-1 19 Apr 02:59:44 03:01:28 12° 88° (E) 03:03:12 436.925 FM
PCSat 19 Apr 03:04:22 03:07:41 16° 319° (NW) 03:11:01 145.825 MHz
Uribyol 2 19 Apr 03:18:41 03:23:54 86° 104° (ESE) 03:29:05 436.500 FM
AO-40 19 Apr 03:44:02 09:36:42 36° 181° (S) 14:59:50 Beacon 2401.320
Gurwin Techsat 1B 19 Apr 03:48:16 03:53:25 49° 99° (E) 03:58:33 435.225 FM
KITSAT 1 19 Apr 03:54:12 04:02:19 76° 302° (WNW) 04:10:29 435.175 FM
AO-7 19 Apr 03:56:38 04:00:37 14° 88° (E) 04:04:36 29.400 - 29.500 MHz
AO-27 19 Apr 03:58:57 04:03:48 42° 290° (WNW) 04:08:39 436.795 MHz FM
ITAMSAT 1 19 Apr 04:09:57 04:14:35 35° 292° (WNW) 04:19:13 435.822 SSB
Oscar 19 19 Apr 04:16:56 04:20:15 17° 298° (WNW) 04:23:33 437.125 CW, 437.150 USB
AO-Echo 19 Apr 04:22:05 04:26:12 29° 293° (WNW) 04:30:15 ?
Oscar 16 19 Apr 04:25:46 04:28:18 14° 300° (WNW) 04:30:50 437.025 USB, Beacon 2401.1428
JAS-1B 19 Apr 04:27:04 04:32:17 36° 98° (E) 04:37:40 435.800 - 435.900 CW/SSB
TMSAT-1 19 Apr 04:36:42 04:42:01 84° 285° (WNW) 04:47:19 436.925 FM
Uosat F 19 Apr 04:39:33 04:44:12 38° 98° (E) 04:48:49 435.120 FM
UOSAT-12 19 Apr 04:41:49 04:43:24 12° 253° (WSW) 04:44:58 437.025 FM, 437.400 FM
Uribyol 2 19 Apr 05:00:27 05:02:38 13° 301° (WNW) 05:04:48 436.500 FM
Gurwin Techsat 1B 19 Apr 05:29:03 05:33:02 22° 296° (WNW) 05:37:00 435.225 FM
STRAND 1 19 Apr 05:35:09 05:38:16 17° 61° (ENE) 05:41:24 ?
AO-7 19 Apr 05:46:17 05:54:38 77° 106° (ESE) 06:02:58 29.400 - 29.500 MHz
KITSAT 1 19 Apr 05:53:09 05:59:10 22° 326° (NW) 06:05:13 435.175 FM
Hamsat 19 Apr 06:07:27 06:09:05 12° 90° (E) 06:10:43 145.90 MHz
RS-15 19 Apr 06:17:19 06:27:19 38° 107° (ESE) 06:37:00 29.354 - 29.394 USB, Beacon 29.352 USB
JAS-1B 19 Apr 06:18:07 06:22:54 29° 295° (WNW) 06:27:46 435.800 - 435.900 CW/SSB
Uosat F 19 Apr 06:18:44 06:22:48 25° 295° (WNW) 06:26:51 435.120 FM
TMSAT-1 19 Apr 06:19:27 06:21:06 11° 302° (WNW) 06:22:45 436.925 FM
STRAND 1 19 Apr 07:11:51 07:16:56 65° 258° (WSW) 07:22:01 ?
AO-7 19 Apr 07:40:12 07:46:36 26° 306° (NW) 07:53:01 29.400 - 29.500 MHz
Hamsat 19 Apr 07:41:09 07:45:27 61° 285° (WNW) 07:49:45 145.90 MHz
SO-67 19 Apr 07:44:53 07:47:48 24° 95° (E) 07:50:41 435.3500 MHz FM
MaSat-1 19 Apr 07:46:57 07:49:54 54° 246° (WSW) 07:53:22 437.345 MHz
KITSAT 1 19 Apr 07:56:51 07:58:27 11° 356° (N) 08:00:02 435.175 FM
JAS-2 19 Apr 08:14:33 08:19:57 76° 103° (ESE) 08:25:53 435.800 - 435.900 CW/SSB, 435.910 FM
PCSat 19 Apr 08:24:27 08:27:11 14° 39° (NE) 08:29:55 145.825 MHz
RS-15 19 Apr 08:27:54 08:39:04 64° 309° (NW) 08:49:58 29.354 - 29.394 USB, Beacon 29.352 USB
HO-68 19 Apr 08:42:20 08:45:25 13° 88° (E) 08:48:29 435.675 MHz FM
SO-67 19 Apr 09:18:17 09:20:48 19° 291° (WNW) 09:23:19 435.3500 MHz FM
Sapphire 19 Apr 09:21:34 09:26:22 31° 50° (NE) 09:31:08 437.095 MHz 1200 baud AX-25 AFSK
PANSAT 19 Apr 09:52:35 09:53:51 11° 172° (S) 09:55:06 not established
KITSAT 1 19 Apr 09:53:07 09:58:07 17° 27° (NNE) 10:03:05 435.175 FM
JAS-2 19 Apr 10:01:38 10:04:33 15° 299° (WNW) 10:07:34 435.800 - 435.900 CW/SSB, 435.910 FM
PCSat 19 Apr 10:06:10 10:11:36 72° 59° (ENE) 10:17:00 145.825 MHz
HO-68 19 Apr 10:26:54 10:34:07 80° 105° (ESE) 10:41:19 435.675 MHz FM
Saudisat 1A 19 Apr 10:32:07 10:35:17 19° 111° (ESE) 10:38:27 436.775 MHz
FUNcube-1 19 Apr 10:42:13 10:45:06 18° 93° (E) 10:48:01 145.950 - 145.970 MHz USB
RS-15 19 Apr 10:45:36 10:54:10 25° 338° (NNW) 11:02:41 29.354 - 29.394 USB, Beacon 29.352 USB
Oscar 11 19 Apr 10:51:42 10:56:04 73° 102° (ESE) 11:00:25 145.825 FM, Beacon 2401.500 USB
Sapphire 19 Apr 11:04:50 11:09:52 40° 249° (WSW) 11:14:52 437.095 MHz 1200 baud AX-25 AFSK
PANSAT 19 Apr 11:31:47 11:33:17 12° 185° (S) 11:34:47 not established
KITSAT 1 19 Apr 11:47:41 11:55:37 54° 52° (NE) 12:03:28 435.175 FM
PCSat 19 Apr 11:51:19 11:54:21 15° 256° (WSW) 11:57:23 145.825 MHz
Saudisat 1A 19 Apr 12:10:15 12:14:33 46° 308° (NW) 12:18:53 436.775 MHz
HO-68 19 Apr 12:15:58 12:21:01 21° 304° (NW) 12:26:05 435.675 MHz FM
FUNcube-1 19 Apr 12:17:42 12:21:40 39° 288° (WNW) 12:25:42 145.950 - 145.970 MHz USB
Oscar 19 19 Apr 12:17:53 12:19:40 12° 58° (ENE) 12:21:26 437.125 CW, 437.150 USB
Oscar 16 19 Apr 12:24:57 12:27:47 15° 60° (ENE) 12:30:36 437.025 USB, Beacon 2401.1428
Oscar 11 19 Apr 12:30:22 12:31:39 11° 298° (WNW) 12:32:56 145.825 FM, Beacon 2401.500 USB
Uribyol 2 19 Apr 12:59:38 13:02:50 17° 61° (ENE) 13:06:02 436.500 FM
RS-15 19 Apr 13:03:58 13:11:54 22° 14° (NNE) 13:19:51 29.354 - 29.394 USB, Beacon 29.352 USB
Gurwin Techsat 1B 19 Apr 13:34:34 13:35:30 10° 57° (ENE) 13:36:25 435.225 FM
AO-27 19 Apr 13:38:01 13:42:42 36° 68° (ENE) 13:47:24 436.795 MHz FM
KITSAT 1 19 Apr 13:43:33 13:50:42 36° 252° (WSW) 13:57:49 435.175 FM
ITAMSAT 1 19 Apr 13:48:30 13:53:23 43° 70° (ENE) 13:58:16 435.822 SSB
Oscar 19 19 Apr 13:53:04 13:58:12 88° 77° (ENE) 14:03:24 437.125 CW, 437.150 USB
AO-Echo 19 Apr 13:55:40 14:00:33 40° 70° (ENE) 14:05:19 ?
Oscar 16 19 Apr 14:01:23 14:06:30 72° 258° (WSW) 14:11:41 437.025 USB, Beacon 2401.1428
TMSAT-1 19 Apr 14:19:34 14:23:18 20° 63° (ENE) 14:27:03 436.925 FM
Uribyol 2 19 Apr 14:36:40 14:41:47 64° 258° (WSW) 14:46:55 436.500 FM
SO-50 19 Apr 14:49:46 14:52:29 16° 110° (ESE) 14:55:13 436.795 FM
AO-7 19 Apr 14:55:14 15:01:21 24° 53° (NE) 15:07:28 29.400 - 29.500 MHz
OPAL 19 Apr 15:06:03 15:10:23 26° 97° (E) 15:14:42 ?
Gurwin Techsat 1B 19 Apr 15:09:15 15:14:33 77° 74° (ENE) 15:19:52 435.225 FM
JAS-1B 19 Apr 15:11:13 15:18:27 39° 68° (ENE) 15:24:37 435.800 - 435.900 CW/SSB
RS-15 19 Apr 15:17:12 15:27:46 50° 46° (NE) 15:38:31 29.354 - 29.394 USB, Beacon 29.352 USB
AO-27 19 Apr 15:17:50 15:22:15 28° 264° (W) 15:26:41 436.795 MHz FM
ISS 19 Apr 15:20:30 15:23:38 39° 138° (SE) 15:26:48 145.800 FM
ITAMSAT 1 19 Apr 15:29:01 15:33:03 23° 266° (W) 15:37:05 435.822 SSB
AO-Echo 19 Apr 15:35:09 15:39:24 25° 265° (W) 15:43:36 ?
Oscar 19 19 Apr 15:37:36 15:38:13 10° 272° (W) 15:38:51 437.125 CW, 437.150 USB
Uosat F 19 Apr 15:52:40 15:57:32 52° 71° (ENE) 16:02:25 435.120 FM
TMSAT-1 19 Apr 15:57:37 16:02:47 55° 260° (W) 16:08:00 436.925 FM
SO-50 19 Apr 16:28:12 16:32:35 55° 306° (NW) 16:37:02 436.795 FM
OPAL 19 Apr 16:44:30 16:49:21 40° 293° (WNW) 16:54:10 ?
AO-7 19 Apr 16:44:56 16:53:13 83° 253° (WSW) 17:01:33 29.400 - 29.500 MHz
Gurwin Techsat 1B 19 Apr 16:52:44 16:55:05 13° 271° (W) 16:57:27 435.225 FM
ISS 19 Apr 16:57:27 17:00:27 29° 335° (NNW) 17:03:27 145.800 FM
JAS-1B 19 Apr 17:01:19 17:08:59 42° 261° (W) 17:15:30 435.800 - 435.900 CW/SSB
UOSAT-12 19 Apr 17:11:12 17:14:50 24° 112° (ESE) 17:18:32 437.025 FM, 437.400 FM
